[[{"header":{"parameterUnit":"m.s-1","parameterCategory":1,"la1":30.2991,"la2":30.254,"lo1":-89.0895,"lo2":-89.0444,"dy":0.0017,"dx":0.0017,"nx":28,"ny":28,"refTime":"2025-07-22T09:00:00:Z","depth":0,"parameterNumber":2,"parameterNumberName":"U-component_of_WINDS"},"data":[0,0,0,0,0,0,0,0,0,0,0,0,0,0,0,0,0,0,0,0,0,0,0,0,0,0,0,0,0,0,0,0,0,0,0,0,0,0,0,0,0,0,0,0,0,0,0,0,0,0,0,0,0,0,0,0,0,0,-5.4768,-5.4763,0,-5.4224,-5.4218,-5.4212,-5.3824,-5.3821,-5.3818,-5.3815,-5.3233,-5.3221,-5.3208,0,0,0,0,0,0,0,0,0,0,0,0,0,-5.5451,-5.544,-5.4769,-5.4762,-5.4756,-5.4225,-5.4218,-5.421,-5.3824,-5.3821,-5.3817,-5.3814,-5.3237,-5.3222,-5.3207,0,0,0,0,0,0,0,0,0,0,0,0,0,-5.5055,-5.5437,-5.477,-5.45,-5.447,-5.4227,-5.4217,-5.4208,-5.3825,-5.3821,-5.3816,-5.3812,-5.3242,-5.3224,-5.3205,-5.318,0,0,-5.3147,-5.3139,0,0,0,0,0,0,0,0,-5.5078,-5.503,-5.4546,-5.4518,-5.4484,-5.4088,-5.4244,-5.3863,-5.3826,-5.4069,-5.3815,-5.381,-5.352,-5.3478,-5.3385,-5.3153,-5.3128,-5.3146,-5.3134,-5.3126,-5.3121,0,0,0,0,0,0,0,-5.5106,-5.5052,-5.4552,-5.454,-5.4502,-5.4397,-5.4336,-5.417,-5.3826,-5.4048,-5.4018,-5.3961,-5.3501,-5.3404,-5.3368,-5.3119,-5.3146,-5.3129,-5.3118,-5.311,-5.2835,-5.2839,0,0,0,0,0,0,-5.5179,-5.5077,-5.457,-5.4536,-5.4777,-5.4389,-5.4321,-5.4219,-5.3827,-5.3763,-5.3965,-5.3945,-5.3439,-5.3391,-5.3346,-5.3288,-5.3126,-5.3108,-5.3097,-5.2831,-5.2836,-5.284,0,0,0,0,0,0,-5.5195,-5.5138,-5.4592,-5.4799,-5.4721,-5.4383,-5.4272,-5.4211,-5.4113,-5.3765,-5.3699,-5.393,-5.3433,-5.3373,-5.3225,-5.3263,-5.31,-5.3083,-5.2826,-5.2832,-5.2838,-5.3176,0,0,0,0,0,0,-5.5217,-5.5146,-5.5139,-5.4802,-5.4712,-5.4488,-5.4274,-5.4204,-5.4084,-5.4052,-5.3715,-5.3654,-5.3425,-5.3256,-5.3207,-5.3234,-5.3068,-5.2821,-5.2829,-5.2836,-5.316,-5.3193,-5.3222,0,0,0,0,0,-5.5242,-5.5251,-5.514,-5.5081,-5.4697,-5.4492,-5.4439,-5.4182,-5.409,-5.4075,-5.3851,-5.3665,-5.3269,-5.3244,-5.3185,-5.3208,-5.2817,-5.2827,-5.2835,-5.3146,-5.3187,-5.3221,0,0,0,0,0,0,-5.5591,-5.5201,-5.5075,-5.4976,-5.4771,-5.4427,-5.4401,-5.4233,-5.4044,-5.4021,-5.3703,-5.3629,-5.3514,-5.3345,-5.3325,-5.3161,-5.3019,-5.3017,-5.3276,-5.3311,-5.3342,-5.3383,-5.3052,0,0,0,0,0,-5.566,-5.5533,-5.5195,-5.514,-5.5045,-5.4743,-5.4643,-5.4464,-5.4235,-5.4143,-5.3908,-5.3687,-5.3511,-5.3402,-5.3221,-5.3135,-5.3052,-5.3121,-5.3152,-5.3179,-5.3179,-5.3117,-5.3143,-5.287,-5.287,-5.287,0,0,-5.5793,-5.5564,-5.5502,-5.5205,-5.5024,-5.4893,-5.4671,-5.4541,-5.4438,-5.412,-5.3969,-5.3789,-5.3519,-5.3403,-5.3339,-5.3258,-5.3237,-5.319,-5.3215,-5.3199,-5.3129,-5.3156,-5.3179,-5.2876,-5.2875,-5.2874,0,0,-5.597,-5.5788,-5.5721,-5.5547,-5.5281,-5.508,-5.5065,-5.4746,-5.4617,-5.4462,-5.422,-5.4089,-5.3795,-5.3613,-5.3482,-5.3594,-5.3413,-5.3543,-5.3701,-5.3645,-5.3667,-5.3684,-5.372,-5.3738,-5.3545,-5.3546,-5.3546,0,-5.6168,-5.5969,-5.5706,-5.5592,-5.5466,-5.5182,-5.5107,-5.4948,-5.4634,-5.455,-5.4466,-5.4092,-5.389,-5.3726,-5.3754,-5.3658,-5.3625,-5.3578,-5.3687,-5.3701,-5.3713,-5.3744,-5.3759,-5.3563,-5.3561,-5.3559,-5.3558,0,-5.6224,-5.609,-5.6066,-5.578,-5.565,-5.5558,-5.5273,-5.5172,-5.5005,-5.4812,-5.4654,-5.4403,-5.4167,-5.4115,-5.3946,-5.3925,-5.3883,-5.3749,-5.3598,-5.3761,-5.3785,-5.3795,-5.3588,-5.3582,-5.3577,-5.3572,0,0,-5.6602,-5.6176,-5.6171,-5.6037,-5.5723,-5.5609,-5.5501,-5.5278,-5.5197,-5.4989,-5.4886,-5.4645,-5.4519,-5.4371,-5.4179,-5.413,-5.4231,-5.3998,-5.3987,-5.4048,-5.4187,-5.429,-5.4309,-5.4112,-5.4113,-5.4114,-5.4209,0,-5.6729,-5.653,-5.629,-5.6168,-5.6037,-5.5766,-5.567,-5.5463,-5.528,-5.5135,-5.4927,-5.4762,-5.4609,-5.4517,-5.4458,-5.4233,-5.4254,-5.4222,-5.4004,-5.4,-5.4079,-5.4321,-5.4428,-5.4531,-5.4217,-5.4218,-5.4219,0,-5.685,-5.6666,-5.6535,-5.6234,-5.6169,-5.6089,-5.5865,-5.5733,-5.5491,-5.5359,-5.5198,-5.4994,-5.4858,-5.473,-5.4534,-5.4519,-5.4415,-5.4291,-5.4288,-5.4255,-5.4118,-5.4291,-5.4557,-5.4573,-5.4231,-5.423,-5.4229,0,-5.7137,-5.6855,-5.674,-5.6633,-5.6279,-5.6229,-5.6077,-5.5831,-5.5713,-5.5514,-5.5432,-5.5218,-5.51,-5.4935,-5.4676,-5.4607,-5.4507,-5.4357,-5.4388,-5.4395,-5.4376,-5.4381,-5.4627,-5.4317,-5.4317,-5.4316,-5.4316,0,-5.7302,-5.7231,-5.6864,-5.6793,-5.6704,-5.6426,-5.6343,-5.6165,-5.5949,-5.5832,-5.5582,-5.5476,-5.5143,-5.4995,-5.4791,-5.4659,-5.4607,-5.4492,-5.4438,-5.4513,-5.4528,-5.4438,-5.4423,-5.432,-5.4319,-5.4318,-5.4318,0,-5.7606,-5.7358,-5.7214,-5.6894,-5.6811,-5.676,-5.648,-5.6396,-5.62,-5.6056,-5.6005,-5.5693,-5.5507,-5.5235,-5.4963,-5.4825,-5.4723,-5.4637,-5.4808,-5.4775,-5.4821,-5.482,-5.5015,-5.5025,-5.4715,-5.4718,-5.4721,0,-5.7727,-5.7667,-5.7343,-5.7252,-5.7112,-5.6966,-5.6846,-5.6569,-5.6452,-5.6173,-5.6122,-5.5919,-5.5741,-5.5454,-5.5198,-5.4988,-5.4893,-5.4976,-5.4859,-5.4937,-5.489,-5.4897,-5.4887,-5.5004,-5.5008,-5.5012,-5.5016,0,-5.7966,-5.7847,-5.7689,-5.7488,-5.7354,-5.718,-5.6992,-5.693,-5.661,-5.649,-5.6302,-5.6166,-5.5893,-5.5691,-5.5448,-5.528,-5.5093,-5.5056,-5.5051,-5.5125,-5.5226,-5.517,-5.4881,-5.5051,-5.5047,-5.5045,-5.5043,-5.5042,-5.8178,-5.8113,-5.7876,-5.7707,-5.7539,-5.7371,-5.7277,-5.7073,-5.6914,-5.6676,-5.6519,-5.6339,-5.6092,-5.5748,-5.5591,-5.544,-5.5361,-5.5355,-5.5353,-5.5355,-5.5381,-5.5255,-5.5394,-5.5392,-5.5391,-5.539,-5.5389,0,-5.8402,-5.8238,-5.8086,-5.7837,-5.7703,-5.7549,-5.7333,-5.7229,-5.7076,-5.6868,-5.6701,-5.6482,-5.6286,-5.6017,-5.5799,-5.573,-5.5638,-5.5681,-5.5682,-5.5646,-5.5465,-5.549,-5.576,-5.576,-5.576,-5.5759,-5.5759,-5.5759,-5.8503,-5.8385,-5.8239,-5.8031,-5.7863,-5.7692,-5.7582,-5.7423,-5.7255,-5.7027,-5.6866,-5.6695,-5.6459,-5.6223,-5.6034,-5.5959,-5.5888,-5.5959,-5.5857,-5.5692,-5.5659,-5.5626,-5.5648,-5.5947,-5.5947,-5.6049,-5.605,-5.6051]},{"header":{"parameterUnit":"m.s-1","parameterCategory":1,"la1":30.2991,"la2":30.254,"lo1":-89.0895,"lo2":-89.0444,"dy":0.0017,"dx":0.0017,"nx":28,"ny":28,"refTime":"2025-07-22T09:00:00:Z","depth":0,"parameterNumber":3,"parameterNumberName":"V-component_of_WINDS"},"data":[0,0,0,0,0,0,0,0,0,0,0,0,0,0,0,0,0,0,0,0,0,0,0,0,0,0,0,0,0,0,0,0,0,0,0,0,0,0,0,0,0,0,0,0,0,0,0,0,0,0,0,0,0,0,0,0,0,0,5.3892,5.3894,0,5.4113,5.4115,5.4118,5.4107,5.4103,5.41,5.4097,5.4311,5.432,5.4328,0,0,0,0,0,0,0,0,0,0,0,0,0,5.3449,5.3457,5.3891,5.3894,5.3897,5.4112,5.4115,5.4118,5.4107,5.4103,5.4099,5.4096,5.4309,5.4319,5.4329,0,0,0,0,0,0,0,0,0,0,0,0,0,5.3652,5.346,5.3891,5.3918,5.3922,5.4112,5.4116,5.4119,5.4108,5.4103,5.4098,5.4094,5.4305,5.4318,5.4331,5.4504,0,0,5.437,5.4376,0,0,0,0,0,0,0,0,5.3641,5.3668,5.3911,5.3916,5.3922,5.4078,5.4038,5.4248,5.4109,5.4037,5.4097,5.4092,5.4237,5.4255,5.4306,5.4514,5.4523,5.4371,5.4379,5.4385,5.4388,0,0,0,0,0,0,0,5.3627,5.3659,5.3979,5.3914,5.3921,5.3915,5.3939,5.4078,5.416,5.4043,5.4043,5.407,5.4238,5.4294,5.4311,5.4526,5.4371,5.4382,5.439,5.4395,5.4887,5.4892,0,0,0,0,0,0,5.3608,5.3647,5.3972,5.3985,5.3767,5.3927,5.3954,5.4032,5.4159,5.4174,5.4074,5.4068,5.4274,5.4296,5.4319,5.4529,5.4384,5.4397,5.4404,5.4882,5.4889,5.4894,0,0,0,0,0,0,5.3599,5.3637,5.3963,5.3817,5.3858,5.394,5.4028,5.4039,5.4094,5.4182,5.4195,5.4116,5.4271,5.43,5.4459,5.4536,5.4402,5.4414,5.4876,5.4884,5.4891,5.4951,0,0,0,0,0,0,5.3586,5.3634,5.3703,5.3818,5.3865,5.4102,5.4033,5.4047,5.4118,5.4113,5.4225,5.4238,5.427,5.444,5.4472,5.4551,5.4424,5.4869,5.488,5.4889,5.4943,5.496,5.4975,0,0,0,0,0,5.3571,5.3708,5.3707,5.3746,5.3954,5.4107,5.4133,5.417,5.4124,5.4192,5.4249,5.4235,5.4524,5.4456,5.4492,5.4577,5.4864,5.4877,5.4888,5.4935,5.4957,5.4975,0,0,0,0,0,0,5.3594,5.3723,5.3723,5.3903,5.3995,5.4105,5.4191,5.4192,5.4294,5.4285,5.4323,5.4348,5.4507,5.4558,5.448,5.4751,5.4688,5.4707,5.4711,5.4732,5.4748,5.473,5.4435,0,0,0,0,0,5.3621,5.3739,5.3844,5.3992,5.4039,5.4108,5.4176,5.4197,5.4291,5.4328,5.4396,5.4485,5.4596,5.4668,5.4775,5.4952,5.4974,5.5028,5.5045,5.5058,5.5072,5.5169,5.5193,5.4934,5.4934,5.4933,0,0,5.3675,5.3761,5.3832,5.3999,5.4073,5.4189,5.414,5.4265,5.4351,5.4346,5.45,5.4554,5.4656,5.4824,5.4902,5.4872,5.515,5.5073,5.5083,5.509,5.5183,5.5208,5.523,5.4942,5.494,5.4939,0,0,5.3835,5.3913,5.4045,5.4122,5.4236,5.4282,5.4314,5.4426,5.4462,5.4619,5.4618,5.4719,5.491,5.4983,5.5044,5.5237,5.5226,5.5271,5.5353,5.5447,5.5467,5.5485,5.5551,5.5574,5.5286,5.5286,5.5286,0,5.3886,5.4067,5.4112,5.424,5.4312,5.432,5.4451,5.4522,5.4663,5.4711,5.4678,5.4919,5.4988,5.5172,5.522,5.5271,5.5306,5.5255,5.5462,5.548,5.5498,5.556,5.5585,5.5291,5.529,5.529,5.5289,0,5.4124,5.4249,5.4342,5.4484,5.4567,5.4696,5.4757,5.4836,5.4852,5.49,5.5059,5.5144,5.5268,5.5314,5.5328,5.5502,5.548,5.5454,5.539,5.5526,5.5585,5.561,5.5297,5.5295,5.5294,5.5293,0,0,5.4297,5.4467,5.45,5.4565,5.4694,5.4789,5.4919,5.5045,5.511,5.5209,5.5315,5.5479,5.5457,5.5528,5.5551,5.5634,5.5778,5.5598,5.56,5.5625,5.5971,5.5986,5.6013,5.5775,5.5779,5.5783,5.5961,0,5.4466,5.47,5.4746,5.4947,5.5062,5.5074,5.5186,5.5275,5.5326,5.5427,5.5481,5.5596,5.556,5.5602,5.5685,5.5742,5.5847,5.5731,5.5869,5.5874,5.5838,5.6045,5.6061,5.6224,5.5985,5.5989,5.5992,0,5.4693,5.4803,5.5017,5.5133,5.5183,5.5284,5.5404,5.5503,5.5604,5.5635,5.5717,5.5732,5.5863,5.5798,5.5978,5.5899,5.5959,5.5996,5.6003,5.6013,5.5937,5.6055,5.6277,5.63,5.6029,5.6026,5.6024,0,5.4793,5.4995,5.515,5.5205,5.5345,5.5415,5.5476,5.5574,5.5647,5.5752,5.5799,5.5916,5.5979,5.6068,5.6113,5.6062,5.6289,5.6228,5.6314,5.6313,5.6356,5.6352,5.6586,5.6404,5.6403,5.6403,5.6402,0,5.4974,5.5104,5.5197,5.5291,5.5436,5.5488,5.5629,5.5688,5.5776,5.5879,5.5896,5.5992,5.6049,5.6152,5.6189,5.6331,5.636,5.6385,5.6392,5.6381,5.6377,5.6416,5.6404,5.6409,5.6408,5.6407,5.6405,0,5.5108,5.5176,5.5345,5.5466,5.55,5.5601,5.5703,5.5793,5.5846,5.5976,5.601,5.6091,5.6214,5.627,5.642,5.6445,5.6606,5.6607,5.6572,5.6573,5.6655,5.6645,5.6918,5.6955,5.6753,5.6755,5.6756,0,5.5216,5.5317,5.5452,5.5525,5.5589,5.5706,5.5783,5.5839,5.5918,5.6044,5.6118,5.6243,5.6345,5.654,5.661,5.6725,5.6726,5.6815,5.6743,5.6729,5.6723,5.6714,5.6723,5.6825,5.6827,5.6829,5.683,0,5.54,5.543,5.5543,5.567,5.5762,5.5863,5.5961,5.6019,5.609,5.6177,5.6306,5.6386,5.6543,5.6665,5.6786,5.6844,5.6848,5.6854,5.6879,5.6865,5.6839,5.6851,5.6602,5.6845,5.6844,5.6843,5.6842,5.6841,5.5521,5.5611,5.5722,5.5847,5.5929,5.6021,5.6113,5.618,5.629,5.6424,5.6451,5.6587,5.6687,5.685,5.6914,5.7019,5.6997,5.7034,5.7043,5.705,5.7053,5.6828,5.7041,5.7041,5.704,5.704,5.704,0,5.5702,5.5776,5.5891,5.6031,5.613,5.6134,5.6243,5.6323,5.6444,5.654,5.6643,5.679,5.691,5.6992,5.7113,5.7181,5.7186,5.721,5.7203,5.7216,5.7067,5.7031,5.7205,5.7205,5.7205,5.7205,5.7204,5.7204,5.5807,5.5961,5.6005,5.6198,5.6269,5.6406,5.6468,5.6553,5.663,5.6796,5.6898,5.6953,5.7042,5.7171,5.728,5.7301,5.7342,5.7367,5.7386,5.7244,5.7226,5.721,5.7176,5.7377,5.7377,5.7526,5.7527,5.7528]}]]